This is the latest recevied weather packets stored in our database for station/object CE3TPB-1. If no packets are shown the sender has not sent any weather packets the latest 10 day(s).
| Time | Temp. | Humidity | Pressure | Rain* | Wind** | Luminosity | Snow |
|---|---|---|---|---|---|---|---|
| 1788527071 | 16.67° C | 33% | 1026.2 hPa | - | - | - | - |
| 1788524661 | 17.78° C | 32% | 1025.3 hPa | - | - | - | - |
| 1788504423 | 20.56° C | 32% | 1022.1 hPa | - | - | - | - |
| 1788503822 | 20.56° C | 32% | 1024.1 hPa | - | - | - | - |
| 1788502622 | 21.11° C | 32% | 1023.8 hPa | - | - | - | - |
| 1788502021 | 21.11° C | 32% | 1023.5 hPa | - | - | - | - |
| 1788501092 | 21.67° C | 31% | 1028.6 hPa | - | - | - | - |
| 1788500821 | 21.67° C | 31% | 1028.6 hPa | - | - | - | - |
| 1788500220 | 21.67° C | 32% | 1026.8 hPa | - | - | - | - |
| 1788499319 | 22.22° C | 31% | 1027.2 hPa | - | - | - | - |
| 1788499019 | 22.22° C | 31% | 1027.2 hPa | - | - | - | - |
| 1788498419 | 22.22° C | 31% | 1025 hPa | - | - | - | - |
| 1788498052 | 22.22° C | 31% | 1028.5 hPa | - | - | - | - |
| 1788497819 | 22.22° C | 31% | 1028.5 hPa | - | - | - | - |
| 1788497218 | 22.22° C | 31% | 1024.5 hPa | - | - | - | - |
| 1788496618 | 22.78° C | 31% | 1025.4 hPa | - | - | - | - |
| 1788496228 | 22.78° C | 31% | 1025.8 hPa | - | - | - | - |
| 1788496017 | 22.78° C | 31% | 1025.8 hPa | - | - | - | - |
| 1788495512 | 22.78° C | 31% | 1027.1 hPa | - | - | - | - |
| 1788495417 | 22.78° C | 31% | 1027.1 hPa | - | - | - | - |
| 1788494816 | 23.33° C | 31% | 1027.4 hPa | - | - | - | - |
| 1788494216 | 23.33° C | 31% | 1027.1 hPa | - | - | - | - |
| 1788493015 | 23.33° C | 31% | 1023.3 hPa | - | - | - | - |
| 1788492414 | 23.89° C | 32% | 1026.6 hPa | - | - | - | - |
| 1788491814 | 23.89° C | 31% | 1026.1 hPa | - | - | - | - |
* Rain since midnight (hover to see other rain measurements)
** Current wind speed in m/s (hover to see current wind gust speed)